This is the latest recevied weather packets stored in our database for station/object VE3VGJ. If no packets are shown the sender has not sent any weather packets the latest 10 day(s).
| Time | Temp. | Humidity | Pressure | Rain* | Wind** | Luminosity | Snow |
|---|---|---|---|---|---|---|---|
| 1777493281 | 11.11° C | 74% | 1009 hPa | 0 mm | - | 74 W/m² | - |
| 1777492976 | 11.11° C | 75% | 1008.8 hPa | 0 mm | - | 132 W/m² | - |
| 1777492673 | 11.11° C | 75% | 1008.7 hPa | 0 mm | - | 116 W/m² | - |
| 1777492373 | 11.11° C | 76% | 1008.8 hPa | 0 mm | - | 123 W/m² | - |
| 1777492071 | 11.11° C | 79% | 1008.9 hPa | 0 mm | - | 275 W/m² | - |
| 1777491768 | 11.11° C | 78% | 1008.8 hPa | 0 mm | - | 284 W/m² | - |
| 1777491464 | 10.56° C | 78% | 1009.1 hPa | 0 mm | - | 233 W/m² | - |
| 1777491162 | 10.56° C | 77% | 1009.1 hPa | 1.78 mm | - | 230 W/m² | - |
| 1777490857 | 10.56° C | 79% | 1009.6 hPa | 1.78 mm | - | 181 W/m² | - |
| 1777490553 | 10.56° C | 78% | 1009.3 hPa | 0 mm | - | 138 W/m² | - |
| 1777490250 | 10.56° C | 78% | 1009.8 hPa | 0 mm | - | 111 W/m² | - |
| 1777489948 | 10.56° C | 79% | 1009.6 hPa | 0 mm | - | 144 W/m² | - |
| 1777489646 | 10.56° C | 79% | 1009.7 hPa | 0 mm | - | 124 W/m² | - |
| 1777489341 | 10.56° C | 80% | 1009.8 hPa | 0 mm | - | 141 W/m² | - |
| 1777489039 | 10.56° C | 80% | 1009.9 hPa | 0 mm | - | 171 W/m² | - |
| 1777488735 | 10.56° C | 80% | 1010 hPa | 0 mm | - | 190 W/m² | - |
| 1777488433 | 10.56° C | 81% | 1009.9 hPa | 0 mm | - | 142 W/m² | - |
| 1777488131 | 10.56° C | 81% | 1009.6 hPa | 0 mm | - | 160 W/m² | - |
| 1777487829 | 10.56° C | 80% | 1009.8 hPa | 0 mm | - | 170 W/m² | - |
| 1777487527 | 10.56° C | 80% | 1009.9 hPa | 0 mm | - | 145 W/m² | - |
| 1777487224 | 10.56° C | 79% | 1009.7 hPa | 0 mm | - | 180 W/m² | - |
| 1777486920 | 10.56° C | 80% | 1009.7 hPa | 0 mm | - | 152 W/m² | - |
| 1777486616 | 10.56° C | 79% | 1009.9 hPa | 0 mm | - | 114 W/m² | - |
| 1777486314 | 11.11° C | 81% | 1009.7 hPa | 0 mm | - | 120 W/m² | - |
| 1777486011 | 10.56° C | 82% | 1009.4 hPa | 0 mm | - | 144 W/m² | - |
* Rain latest hour (hover to see other rain measurements)
** Current wind speed in m/s (hover to see current wind gust speed)